Regional Weather Roundup
Issued by NWS Sioux Falls, SD

Home | Current Version | Previous Version | Graphics & Text | Print | Product List | Glossary On
Versions: 1 2 3 4 5 6 7 8 9 10 11 12 13 14 15 16 17 18 19 20 21 22 23 24 25 26 27 28 29 30 31 32 33 34 35 36 37 38 39 40 41 42 43 44 45 46 47 48 49 50
000
ASUS43 KFSD 211210
RWRFSD

WEATHER ROUNDUP FOR SE SOUTH DAKOTA/SW MINNESOTA/NW IOWA
NATIONAL WEATHER SERVICE SIOUX FALLS SD
700 AM CDT THU SEP 21 2017

NOTE: "FAIR" INDICATES FEW OR NO CLOUDS BELOW 12,000 FEET WITH NO
SIGNIFICANT WEATHER AND OR OBSTRUCTIONS TO VISIBILITY.


SDZ038>040-050-052>070-211300-
SOUTHEAST SOUTH DAKOTA

CITY           SKY/WX    TMP DP  RH WIND       PRES   REMARKS
BROOKINGS      CLEAR     51  47  86 SE12      29.90S
CHAMBERLAIN    CLEAR     53  50  90 SE7       29.79S
6HR MIN TEMP:  53; 6HR MAX TEMP:  58;

HURON          CLEAR     51  47  86 SE8       29.84F
6HR MIN TEMP:  51; 6HR MAX TEMP:  56;

MADISON        FAIR      54  50  87 SE14      29.89S
MITCHELL       CLEAR     52  47  83 S9        29.86S
6HR MIN TEMP:  52; 6HR MAX TEMP:  56;

SIOUX FALLS    CLEAR     54  50  86 E9        29.89F
6HR MIN TEMP:  49; 6HR MAX TEMP:  55;

WINNER         FAIR      54  47  77 SE13      29.78F
YANKTON        CLEAR     50  47  89 E5        29.87S
$$

MNZ071-072-080-081-089-090-097-098-211300-
SOUTHWEST MINNESOTA

CITY           SKY/WX    TMP DP  RH WIND       PRES   REMARKS
FAIRMONT       CLEAR     52  48  86 E5        29.96S
JACKSON        PTCLDY    50  46  87 CALM      29.96S
LUVERNE        CLEAR     46  45  93 CALM      29.91F
MARSHALL       CLEAR     51  47  86 S9        29.92F
6HR MIN TEMP:  50; 6HR MAX TEMP:  54;

MONTEVIDEO     CLEAR     48  45  87 S5        29.93S
PIPESTONE      CLEAR     54  48  82 SE8       29.91S
REDWOOD FALLS  CLEAR     49  45  86 MISG      29.94S
TRACY          CLEAR     52  48  87 SE6       29.94S
WINDOM         CLEAR     54  46  76 SE6       29.95S
WORTHINGTON    CLEAR     52  48  86 E6        29.94F
$$

IAZ001>003-012>014-020>022-031-032-NEZ013-014-SDZ071-211300-
NORTHWEST IOWA

CITY           SKY/WX    TMP DP  RH WIND       PRES   REMARKS
DENISON        MOCLDY    63  57  82 E9        29.91S
ESTHERVILLE    CLEAR     50  48  93 E5        29.95S
ORANGE CITY    CLEAR     57  54  88 E8        29.90F
SHELDON        CLEAR     54  50  87 E7        29.90F
SIOUX CITY     PTCLDY    57  53  86 E7        29.88S
6HR MIN TEMP:  49; 6HR MAX TEMP:  57;

SPENCER        CLEAR     52  49  89 E8        29.93F
6HR MIN TEMP:  49; 6HR MAX TEMP:  52;

STORM LAKE     CLEAR     57  52  82 E9        29.93F
$$

ABBREVIATIONS USED IN REMARKS
   TC - TEMPERATURE IN CELSIUS
  WCI - WIND CHILL INDEX
   HX - HEAT INDEX
  VSB - VISIBILITY




USA.gov is the U.S. government's official web portal to all federal, state and local government web resources and services.